Montgomery, NY

1:03 AM EDT on May 01, 2017 (GMT -0400)
Orange County

Weather History for KMGJ - January, 2014

Change the Weather History Date:

Sunday, January 26, 2014

  Actual Average (KSWF) Record (KSWF)
Temperature  
Mean Temperature 14 °F -  
Max Temperature 21 °F 31 °F 60 °F (1978)
Min Temperature 6 °F 14 °F -3 °F (1982)
Degree Days  
Heating Degree Days 52    
Moisture  
Dew Point 5 °F    
Average Humidity 63    
Maximum Humidity 88    
Minimum Humidity 40    
Precipitation  
Precipitation 0.00 in - - ()
Sea Level Pressure  
Sea Level Pressure 29.74 in    
Wind  
Wind Speed 8 mph (WSW)    
Max Wind Speed 15 mph    
Max Gust Speed 23 mph    
Visibility 9 miles    
Events Snow    
Averages and records for this station are not official NWS values.
T = Trace of Precipitation, MM = Missing Value Source: NWS Daily Summary

Daily Weather History Graph

Daily Weather History Graph

Search for Another Location

Airport or City:

Trip Planner

Search our weather history database for the weather conditions in past years. The results will help you decide how hot, cold, wet, or windy it might be!

Date:

Astronomy

Jan. 26, 2014 Rise Set
Actual Time 7:14 AM EST 5:05 PM EST
Civil Twilight 6:44 AM EST 5:35 PM EST
Nautical Twilight 6:10 AM EST 6:08 PM EST
Astronomical Twilight 5:38 AM EST 6:41 PM EST
Moon 2:49 AM EST (1/26) 12:52 PM EST (1/26)
Length of Visible Light 10h 50m
Length of Day
9h 51m
Waning Crescent, 24% of the Moon is Illuminated
Jan 26
Waning Crescent
Jan 30
New
Feb 6
First Quarter
Feb 14
Full
Feb 22
Last Quarter

Hourly Weather History & Observations

Time (EST) Temp. Windchill Dew Point Humidity Pressure Visibility Wind Dir Wind Speed Gust Speed Precip Events Conditions
12:22 AM 10.9 °F 1.4 °F 7.0 °F 84% 29.43 in 4.0 mi SSW 5.8 mph - 0.00 in Snow Light Snow
12:36 AM 10.0 °F -1.9 °F 6.1 °F 84% 29.44 in 8.0 mi SSW 8.1 mph - 0.00 in   Scattered Clouds
12:54 AM 12.9 °F 2.6 °F 10.0 °F 88% 29.47 in 10.0 mi SW 6.9 mph - 0.00 in   Clear
1:54 AM 19.0 °F 6.1 °F 7.0 °F 59% 29.53 in 10.0 mi West 12.7 mph - 0.00 in   Clear
2:54 AM 17.1 °F 2.5 °F 3.9 °F 56% 29.61 in 10.0 mi NW 15.0 mph 23.0 mph N/A   Partly Cloudy
3:54 AM 15.1 °F 5.2 °F 1.9 °F 56% 29.66 in 10.0 mi NW 6.9 mph - N/A   Clear
4:54 AM 12.9 °F -0.9 °F -0.0 °F 56% 29.70 in 10.0 mi West 11.5 mph 17.3 mph N/A   Partly Cloudy
5:54 AM 6.1 °F -2.8 °F -0.0 °F 76% 29.72 in 10.0 mi West 4.6 mph - N/A   Clear
6:54 AM 9.0 °F 0.6 °F -2.9 °F 59% 29.76 in 10.0 mi WSW 4.6 mph - N/A   Partly Cloudy
7:54 AM 10.9 °F -0.8 °F -2.9 °F 54% 29.80 in 10.0 mi WSW 8.1 mph - N/A   Clear
8:54 AM 12.9 °F -0.9 °F -2.0 °F 51% 29.84 in 10.0 mi WSW 11.5 mph - N/A   Clear
9:54 AM 15.1 °F 1.8 °F -0.0 °F 51% 29.86 in 10.0 mi West 11.5 mph 18.4 mph N/A   Mostly Cloudy
10:54 AM 17.1 °F 4.3 °F -2.0 °F 43% 29.86 in 10.0 mi West 11.5 mph 21.9 mph N/A   Scattered Clouds
11:54 AM 18.0 °F 4.8 °F -2.9 °F 40% 29.82 in 10.0 mi West 12.7 mph 16.1 mph N/A   Clear
12:54 PM 19.0 °F 6.8 °F -2.0 °F 40% 29.80 in 10.0 mi West 11.5 mph - N/A   Clear
1:54 PM 19.0 °F 8.2 °F -0.9 °F 42% 29.80 in 10.0 mi SW 9.2 mph - N/A   Overcast
2:54 PM 19.0 °F 5.0 °F 5.0 °F 54% 29.82 in 8.0 mi SW 15.0 mph 21.9 mph N/A   Overcast
3:44 PM 17.1 °F 3.6 °F 9.0 °F 71% 29.80 in 4.0 mi SSW 12.7 mph - 0.00 in Snow Light Snow
3:54 PM 17.1 °F 5.8 °F 9.0 °F 71% 29.82 in 7.0 mi SSW 9.2 mph - 0.00 in   Overcast
4:32 PM 16.0 °F 4.4 °F 8.1 °F 71% 29.79 in 10.0 mi SSW 9.2 mph - N/A   Scattered Clouds
4:54 PM 16.0 °F 5.3 °F 8.1 °F 71% 29.81 in 10.0 mi SSW 8.1 mph - N/A   Scattered Clouds
5:54 PM 17.1 °F 8.7 °F 8.1 °F 68% 29.82 in 10.0 mi SSW 5.8 mph - N/A   Overcast
6:54 PM 17.1 °F 11.7 °F 9.0 °F 71% 29.81 in 10.0 mi South 3.5 mph - N/A   Overcast
7:54 PM 19.0 °F 12.3 °F 9.0 °F 65% 29.82 in 10.0 mi SW 4.6 mph - N/A   Overcast
8:54 PM 21.0 °F 9.3 °F 10.0 °F 63% 29.80 in 10.0 mi SSW 11.5 mph - N/A   Overcast
9:54 PM 21.0 °F 16.2 °F 12.0 °F 68% 29.81 in 10.0 mi SW 3.5 mph - N/A   Overcast
10:54 PM 21.0 °F - 12.9 °F 71% 29.79 in 10.0 mi Calm Calm - N/A   Overcast
11:54 PM 21.0 °F - 14.0 °F 74% 29.77 in 10.0 mi Calm Calm - N/A   Overcast